Location: Clermont
(50.2608°N, 4.3172°E)
Time: 05:00:03
(UTC+00:00)

USA 238 - Pass Details

Date: 13 August 2020
Orbit: 1006 x 1206 km, 63.4° (Epoch: 17 September)

Event Time Altitude Azimuth Distance (km) Brightness Sun altitude
Rises 20:26:52 0° 211° (SSW) 3,739 6.5 -11.9°
Reaches altitude 10° 20:29:26 10° 209° (SSW) 2,805 5.8 -12.2°
Maximum altitude 20:35:59 70° 127° (SE) 1,110 3.6 -13.0°
Drops below altitude 10° 20:42:52 10° 46° (NE) 2,940 6.0 -13.8°
Sets 20:45:36 0° 44° (NE) 3,930 6.7 -14.1°
